Regional Weather Roundup
Issued by NWS

Home | Current Version | Previous Version | Graphics & Text | Print | Product List | Glossary On
Versions: 1 2 3 4 5 6 7 8 9 10 11 12 13 14 15 16 17 18 19 20 21 22 23 24 25 26 27 28 29 30 31 32 33 34 35 36 37 38 39 40 41 42 43 44 45 46 47 48 49 50
000
ASUS43 KDMX 282007
RWRIA

WEATHER ROUNDUP FOR IOWA
NATIONAL WEATHER SERVICE DES MOINES IA
200 PM CST SUN DEC 28 2014

NOTE: "FAIR" INDICATES FEW OR NO CLOUDS BELOW 12,000 FEET WITH NO
SIGNIFICANT WEATHER AND/OR OBSTRUCTIONS TO VISIBILITY.

* - THESE STATIONS ARE NOT NWS STATIONS...THUS NOT UNDER NWS
QUALITY CONTROL.  THEY ALSO DO NOT REPORT WEATHER SUCH
AS PRECIPITATION OR FOG.

IAZ001>003-012>014-020>022-031>034-043>046-282100-
   NORTHWEST IOWA

CITY           SKY/WX    TMP DP  RH WIND       PRES   REMARKS
CARROLL *      SUNNY     27  19  74 CALM      30.12R
CHEROKEE *     MOSUNNY   21  16  79 CALM      30.13S
DENISON *      SUNNY     28  21  74 VRB3      30.09S
LE MARS *      SUNNY     19  14  79 MISG      30.14S
ORANGE CITY *  SUNNY     21  18  86 E3        30.12R
SHELDON *      SUNNY     21  19  93 NE7       30.12R WCI  13
SIOUX CITY     MOSUNNY   23  16  74 CALM      30.13F
SPENCER        SUNNY     24  17  74 E8        30.12S WCI  15
STORM LAKE *   SUNNY     19  16  86 N6        30.11S WCI  11
$$

IAZ055>058-069>071-079>083-090>094-282100-
   SOUTHWEST IOWA

CITY           SKY/WX    TMP DP  RH WIND       PRES   REMARKS
ATLANTIC *     SUNNY     32  23  69 SW8       30.11F WCI  25
AUDUBON *      SUNNY     32  19  59 CALM      30.12R
CLARINDA *     SUNNY     37  23  56 SW8       30.14F WCI  31
COUNCIL BLFS * SUNNY     30  21  69 CALM      30.09F
CRESTON *      SUNNY     34  23  64 SW8       30.12S WCI  27
HARLAN  *      SUNNY     30  25  80 S5        30.14S WCI  25
LAMONI         SUNNY     36  22  56 SW10      30.12F WCI  28
RED OAK *      SUNNY     34  23  64 SW6       30.12F WCI  29
SHENANDOAH *   SUNNY     36  25  64 SW7       30.13F WCI  30
$$

IAZ047>049-059>061-072>074-084-282100-
   CENTRAL IOWA

CITY           SKY/WX    TMP DP  RH WIND       PRES   REMARKS
AMES           SUNNY     32  22  66 CALM      30.13F
ANKENY *       SUNNY     32  21  64 SW6       30.14S WCI  26
CHARITON *     SUNNY     36  23  60 SW10      30.13F WCI  28
DES MOINES     MOSUNNY   33  23  66 S3        30.14F
GRINNELL*      SUNNY     32  23  69 SW7       30.14S WCI  26
KNOXVILLE *    SUNNY     36  21  55 S8        30.12F WCI  29
MARSHALLTOWN   SUNNY     31  23  72 CALM      30.13S
PELLA *        SUNNY     37  23  56 S8        30.15F WCI  31
PERRY *          N/A     32  25  74 CALM      30.13S
$$

IAZ004>006-015-016-023>025-035-036-282100-
   NORTH CENTRAL IOWA

CITY           SKY/WX    TMP DP  RH WIND       PRES   REMARKS
ALGONA *       SUNNY     21  16  79 NE6       30.13S WCI  14
CLARION *      SUNNY     19  16  86 N5        30.13S WCI  13
ESTHERVILLE    SUNNY     22  16  78 N7        30.13R WCI  13
FORT DODGE *   SUNNY     21  14  73 E5        30.13S WCI  15
MASON CITY     SUNNY     22  15  75 NE5       30.14S WCI  16
FOREST CITY *  SUNNY     23  16  74 N3        30.13R
IOWA FALLS *     N/A     30  21  69 CALM      30.14S
$$

IAZ007>011-017>019-026>030-037>042-050>054-066-282100-
   NORTHEAST IOWA

CITY           SKY/WX    TMP DP  RH WIND       PRES   REMARKS
CEDAR RAPIDS   SUNNY     32  15  49 SW5       30.15S WCI  27
CHARLES CITY * SUNNY     25  19  80 CALM      30.14S
CLINTON *      SUNNY     32  16  51 W8        30.20S WCI  25
DECORAH *      SUNNY     27  19  74 VRB3      30.12S
DUBUQUE        SUNNY     30  14  51 W9        30.14S WCI  22
MONTICELLO *   SUNNY     32  14  47 W6        30.16R WCI  26
OELWEIN *      MOSUNNY   30  21  69 SW6       30.15R WCI  24
WATERLOO       SUNNY     31  20  63 CALM      30.15R
$$

IAZ064-065-067-068-078-282100-
   EAST CENTRAL IOWA

CITY           SKY/WX    TMP DP  RH WIND       PRES   REMARKS
DAVENPORT      SUNNY     32  16  51 SW7       30.17F WCI  26
IOWA CITY      SUNNY     32  18  56 S6        30.18F WCI  26
MT. PLEASANT * SUNNY     36  16  44 SW5       30.17F WCI  32
MUSCATINE *    SUNNY     36  18  48 SW6       30.18F WCI  31
QUAD CITIES    SUNNY     35  17  47 MISG      30.17F
$$

IAZ062-063-075>077-085>089-095>099-282100-
   SOUTHEAST IOWA

CITY           SKY/WX    TMP DP  RH WIND       PRES   REMARKS
BURLINGTON     SUNNY     35  16  45 SW6       30.16F WCI  30
FAIRFIELD *    SUNNY     34  18  51 SW8       30.16F WCI  27
FORT MADISON * SUNNY     37  18  44 SW3       30.17S
KEOKUK *       SUNNY     36  19  51 S6        30.16F WCI  31
OSKALOOSA *      N/A     34  19  55 SW7       30.15F WCI  28
CENTERVILLE *  SUNNY     36  21  55 S7        30.15F WCI  30
OTTUMWA        SUNNY     35  18  49 SW6       30.15F WCI  30
WASHINGTON *   SUNNY     34  18  51 W6        30.16F WCI  29
$$

ABBREVIATIONS USED IN REMARKS
   TC - TEMPERATURES IN CELSIUS
  WCI - WIND CHILL INDEX
   HX - HEAT INDEX
  VSB - VISIBILITY
$$




USA.gov is the U.S. government's official web portal to all federal, state and local government web resources and services.